Flag for Switzerland Weather past 2 weeks in Bellinzona, Ticino, Switzerland

Now
52 °F

Cool.


Feels Like: 52 °F
Forecast: 60 / 81 °F
Wind: 1 mph from East

Location: Locarno-Magadino

Current Time: Oct 20, 2014 at 6:55:43 AM

Latest Report: Oct 20, 2014 at 4:00 AM


Visibility: N/A

Pressure: 30.26 "Hg

Humidity: 100%

Dew point: 52 °F

Location of BellinzonaLocation

Historic Weather in Bellinzona — Graph

°F

Bellinzona temperature yesterday

Maximum temperature yesterday: 71 °F (at 4:00 PM)
Minimum temperature yesterday: 54 °F (at 1:00 AM)
Average temperature yesterday: 61 °F

Past Weeks' High & Low Weather Summary

 TemperatureHumidityPressure
High72 °F (Oct 17, 4:00 PM)100% (Oct 9, 3:00 AM)30.33 "Hg (Oct 9, 3:00 AM)
Low47 °F (Oct 18, 8:00 AM)52% (Oct 18, 4:00 PM)29.78 "Hg (Oct 15, 4:00 PM)
Average59 °F91%30.03 "Hg
* Reported Oct 5 4:00 AM — Oct 20 4:00 AM, Bellinzona, Weather by CustomWeather, © 2014

Note: Actual official high and low records may vary slightly from our data, if they occured in-between our weather recording intervals... More about our weather records

Advertising

Bellinzona weather history for previous 24 hours

 ConditionsComfort  
Time TempWeatherWind HumidityBarometerVisibility
4:00 AM
Oct 20
52 °FCool.1 mph100%30.26 "HgN/A
3:00 AM55 °FCool.2 mph97%30.26 "HgN/A
2:00 AM54 °FCool.No wind100%30.27 "HgN/A
1:00 AM56 °FCool.1 mph98%30.27 "HgN/A
12:00 AM60 °FCool.2 mph92%30.27 "HgN/A
11:00 PM
Oct 19
58 °FCool.2 mph96%30.27 "HgN/A
10:00 PM59 °FCool.No wind96%30.27 "HgN/A
9:00 PM61 °FCool.2 mph88%30.26 "HgN/A
8:00 PM61 °FCool.1 mph92%30.25 "HgN/A
7:00 PM63 °FMild.2 mph85%30.24 "HgN/A
6:00 PM67 °FMild.1 mph72%30.21 "HgN/A
5:00 PM70 °FMild.5 mph68%30.20 "HgN/A
4:00 PM71 °FMild.5 mph62%30.21 "HgN/A
3:00 PM71 °FMild.6 mph65%30.22 "HgN/A
2:00 PM70 °FMild.5 mph62%30.24 "HgN/A
1:00 PM71 °FMild.2 mph57%30.26 "HgN/A
12:00 PM68 °FMild.1 mph64%30.28 "HgN/A
11:00 AM65 °FMild.1 mph76%30.29 "HgN/A
10:00 AM62 °FMild.1 mph79%30.31 "HgN/A
9:00 AM56 °FCool.No wind95%30.32 "HgN/A
8:00 AM56 °FCool.1 mph97%30.31 "HgN/A
7:00 AM58 °FCool.2 mph93%30.32 "HgN/A
6:00 AM57 °FCool.1 mph96%30.32 "HgN/A
Weather by CustomWeather, © 2014

See weather overviewHow to use our weather pages